Volver al catálogo

STARLINK-2593

ActivoComunicacionesVLEO
NORAD 48404·PAYLOAD·🇺🇸 United States

Lanzado May 4, 2021 desde Cape Canaveral Space Force Station

Loading…

Próximos Pases (próximas 24 horas)

TLE

ActualizadoSource: CelesTrak SupGP

Época: Sep 14, 2026, 21:14 UTC

1 48404C 21038BD  26257.88520833 -.00026573  00000+0 -85464-3 0  2574
2 48404  53.1598 172.1977 0001471  87.4556 298.3969 15.31710540    19

Sigue STARLINK-2593 en tiempo real con AllMySat

Download on the App Store